Tracking 28126 objects as of 2-Oct-2023
HD Live streaming from Space Station
objects crossing your sky now

OBJECT H

Track OBJECT H now!
10-day predictions


NORAD ID: 47939
Int'l Code: 2021-022H
Perigee: 503.7 km
Apogee: 520.0 km
Inclination: 97.5 °
Period: 94.7 minutes
Semi major axis: 6882 km
RCS: Unknown
Launch date: March 22, 2021
Source: (TBD)
Launch site: TYURATAM MISSILE AND SPACE COMPLEX (TTMTR)

Note: This is a ROCKET BODY
Your satellite tracking list
Your tracking list is empty




NASA's NSSDC Master Catalog

Two Line Element Set (TLE):
1 47939U 21022H   23274.87910972  .00027360  00000-0  12541-2 0  9993
2 47939  97.4829 173.2579 0011875 313.1819  46.8423 15.20366528139384
Source of the keplerian elements: AFSPC